FENGYUN 1C DEB

Satellite information

Favourite Embed

Satellite Type and Status

DEBRISIN ORBIT

Key statistics

Satellite FENGYUN 1C DEB at a glance.

Uptime

9617

Days in orbit

Revolutions

≈ 14.4

Per day

Orbit

SSO

Sun Synchronous Orbit

Inclination

99.0

Latest

Satellite identification and parameters

Extended collection of information and parameters for FENGYUN 1C DEB.

Object identification

Identified? True

Debris? True

Object name: FENGYUN 1C DEB

International designator: 1999-025BZH

Object number (NORAD): 31566

Object ID (CCSDS): 31566

Country: PEOPLES REPUBLIC OF CHINA (PRC)

Current information (Y/N): Y

RCS size: SMALL

Orbital parameters

Period: 100.286 minutes

Inclination: 98.9558 deg

SMA: 7150.219 km

Apoapsis: 789.324 km

Periapsis: 754.845 km

RAAN: 305.0728 deg

Eccentricy: 0.00241105

Argument of periapsis: 277.7343 deg

Mean anomaly: 257.374 deg

Mean motion: 14.35898473 rev/day

Mean motion (dot): 0.00007758 rev/day2

B* drag term: 0.0026802775 1/REarth

Two-line elements (TLE)

Creation date: Sept. 7, 2025, 3:09 a.m.

Reference frame: TEME

Reference center: EARTH

Epoch: Sept. 6, 2025, 10:40 p.m. UTC

TLE line 0: 0 FENGYUN 1C DEB

TLE line 1: 1 31566U 99025BZH 25249.94486075 .00007758 00000-0 26803-2 0 9999

TLE line 2: 2 31566 98.9558 305.0728 0024110 277.7343 257.3740 14.35898473950018

Live tracking on map

Real-time ground track for satellite FENGYUN 1C DEB.

In-orbit conjunctions

A list of the most updated potential collisions computed for object FENGYUN 1C DEB.

Target Orbit TCA Probability of collision Miss distance Type
COSMOS 676 LEO 2025-06-07 08:00:14 0.0003118678 618.0 (m) PAYLOAD
FENGYUN 1C DEB SSO 2024-11-14 05:02:37 0.0003122787 555.0 (m) DEBRIS
THOR AGENA D R/B SSO 2024-11-10 13:45:26 0.0004748621 670.0 (m) ROCKET BODY
COSMOS 1603 DEB LEO 2024-07-08 12:25:50 0.0002811047 72.0 (m) DEBRIS

Associated space launch

Chinese polar orbiting meteorological satellite

FENGYUN 1C DEB was lifted into orbit during the mission ‘Long March 4B | Feng Yun 1C’, on board a Long March 4B space rocket.

The launch took place on May 10, 1999, 1:33 a.m. from Launch Complex 7.

For more information about the launch, click the button.

Launch to space Long March 4B | Feng Yun 1C
Long March 4B | Feng Yun 1C

Agency: N/A

Status: Launch Successful

Launch date: May 10, 1999, 1:33 a.m. UTC

Rocket: Long March 4B

Launch pad: Launch Complex 7

Location: Taiyuan Satellite Launch Center, People's Republic of China

...

Latest news about this satellite

There are no fresh news available about this satellite. Check back as we update our databases every day.


Newsletter sign-up

Weekly statistics, charts and insights to help you stay on top of the space industry.